Weather History for Payson, AZ

Change the Weather History Date:

Tuesday, April 30, 2013

  Actual Average Record
Temperature  
Mean Temperature 64 °F -  
Max Temperature 78 °F 74 °F 78 °F (2013)
Min Temperature 51 °F 37 °F 44 °F (2014)
Growing Degree Days 14 (Base 50)    
Moisture  
Dew Point 17 °F    
Average Humidity 17    
Maximum Humidity 34    
Minimum Humidity 7    
Precipitation  
Precipitation 0.00 in - - ()
Sea Level Pressure  
Sea Level Pressure 29.95 in    
Wind  
Wind Speed 5 mph (SW)    
Max Wind Speed 21 mph    
Max Gust Speed 29 mph    
Visibility 10 miles    
Events      
Averages and records for this station are not official NWS values.
T = Trace of Precipitation, MM = Missing Value Source: NWS Daily Summary

Daily Weather History Graph

Daily Weather History Graph

Search for Another Location

Airport:

Trip Planner

Search our weather history database for the weather conditions in past years. The results will help you decide how hot, cold, wet, or windy it might be!

Date:

Astronomy

Apr. 30, 2013 Rise Set
Actual Time 5:36 AM MST 7:09 PM MST
Civil Twilight 5:09 AM MST 7:35 PM MST
Nautical Twilight 4:37 AM MST 8:07 PM MST
Astronomical Twilight 4:04 AM MST 8:41 PM MST
Moon No Moon Rise 10:11 AM MST
Length of Visible Light 14h 26m
Length of Day
13h 32m
Waning Gibbous, 69% of the Moon is Illuminated
Apr 30
Waning Gibbous
May 2
Last Quarter
May 9
New
May 17
First Quarter
May 24
Full

Hourly Weather History & Observations

Time (MST) Temp. Dew Point Humidity Pressure Visibility Wind Dir Wind Speed Gust Speed Precip Events Conditions
12:15 AM 57.2 °F 21.2 °F 25% 29.93 in 10.0 mi Calm Calm - N/A   Clear
12:35 AM 57.2 °F 21.2 °F 25% 29.93 in 10.0 mi WNW 3.5 mph - N/A   Clear
12:55 AM 57.2 °F 21.2 °F 25% 29.93 in 10.0 mi WNW 3.5 mph - N/A   Clear
1:15 AM 53.6 °F 21.2 °F 28% 29.93 in 10.0 mi NW 3.5 mph - N/A   Clear
1:35 AM 55.4 °F 21.2 °F 26% 29.93 in 10.0 mi Calm Calm - N/A   Clear
1:55 AM 55.4 °F 21.2 °F 26% 29.93 in 10.0 mi NW 3.5 mph - N/A   Clear
2:15 AM 55.4 °F 21.2 °F 26% 29.93 in 10.0 mi NW 3.5 mph - N/A   Clear
2:55 AM 53.6 °F 21.2 °F 28% 29.93 in 10.0 mi Calm Calm - N/A   Clear
3:15 AM 55.4 °F 21.2 °F 26% 29.93 in 10.0 mi Calm Calm - N/A   Clear
3:35 AM 55.4 °F 19.4 °F 25% 29.93 in 10.0 mi Calm Calm - N/A   Clear
3:55 AM 55.4 °F 21.2 °F 26% 29.94 in 10.0 mi Calm Calm - N/A   Clear
4:15 AM 53.6 °F 21.2 °F 28% 29.94 in 10.0 mi Calm Calm - N/A   Clear
4:35 AM 51.8 °F 21.2 °F 30% 29.93 in 10.0 mi Calm Calm - N/A   Clear
4:55 AM 51.8 °F 21.2 °F 30% 29.93 in 10.0 mi Calm Calm - N/A   Clear
5:15 AM 53.6 °F 21.2 °F 28% 29.93 in 10.0 mi Calm Calm - N/A   Clear
5:35 AM 53.6 °F 21.2 °F 28% 29.94 in 10.0 mi Calm Calm - N/A   Clear
5:55 AM 59.0 °F 17.6 °F 20% 29.94 in 10.0 mi Calm Calm - N/A   Clear
6:15 AM 55.4 °F 21.2 °F 26% 29.95 in 10.0 mi Calm Calm - N/A   Partly Cloudy
6:35 AM 55.4 °F 19.4 °F 25% 29.95 in 10.0 mi Calm Calm - N/A   Partly Cloudy
6:55 AM 55.4 °F 26.6 °F 33% 29.95 in 10.0 mi Calm Calm - N/A   Scattered Clouds
7:15 AM 57.2 °F 24.8 °F 29% 29.96 in 10.0 mi Calm Calm - N/A   Scattered Clouds
7:35 AM 57.2 °F 28.4 °F 33% 29.96 in 10.0 mi Calm Calm - N/A   Scattered Clouds
7:55 AM 60.8 °F 32.0 °F 34% 29.97 in 10.0 mi Calm Calm - N/A   Partly Cloudy
8:15 AM 66.2 °F 21.2 °F 18% 29.97 in 10.0 mi Calm Calm - N/A   Clear
8:35 AM 66.2 °F 26.6 °F 23% 29.97 in 10.0 mi SSE 3.5 mph - N/A   Clear
8:55 AM 69.8 °F 23.0 °F 17% 29.97 in 10.0 mi SE 4.6 mph - N/A   Clear
9:15 AM 71.6 °F 21.2 °F 15% 29.98 in 10.0 mi Calm Calm - N/A   Partly Cloudy
9:35 AM 71.6 °F 21.2 °F 15% 29.98 in 10.0 mi West 5.8 mph - N/A   Partly Cloudy
9:55 AM 71.6 °F 23.0 °F 16% 29.98 in 10.0 mi South 8.1 mph - N/A   Clear
10:15 AM 71.6 °F 21.2 °F 15% 29.98 in 10.0 mi SW 3.5 mph - N/A   Clear
10:35 AM 73.4 °F 23.0 °F 15% 29.98 in 10.0 mi South 5.8 mph - N/A   Clear
10:55 AM 73.4 °F 23.0 °F 15% 29.98 in 10.0 mi South 9.2 mph - N/A   Scattered Clouds
11:15 AM 73.4 °F 21.2 °F 14% 29.97 in 9.0 mi SSE 5.8 mph - N/A   Scattered Clouds
11:35 AM 75.2 °F 19.4 °F 12% 29.97 in 10.0 mi WSW 8.1 mph 21.9 mph N/A   Partly Cloudy
12:15 PM 77.0 °F 14.0 °F 9% 29.96 in 10.0 mi West 13.8 mph 19.6 mph N/A   Partly Cloudy
12:35 PM 77.0 °F 10.4 °F 8% 29.96 in 10.0 mi SW 12.7 mph 25.3 mph N/A   Partly Cloudy
12:55 PM 78.8 °F 14.0 °F 9% 29.96 in 10.0 mi WSW 16.1 mph 23.0 mph N/A   Clear
1:15 PM 78.8 °F 12.2 °F 8% 29.96 in 10.0 mi West 13.8 mph 21.9 mph N/A   Clear
1:35 PM 78.8 °F 12.2 °F 8% 29.95 in 10.0 mi West 15.0 mph 27.6 mph N/A   Clear
1:55 PM 78.8 °F 10.4 °F 7% 29.96 in 10.0 mi SSW 13.8 mph 24.2 mph N/A   Clear
2:15 PM 78.8 °F 12.2 °F 8% 29.95 in 10.0 mi SSW 16.1 mph 21.9 mph N/A   Clear
2:35 PM 78.8 °F 12.2 °F 8% 29.94 in 10.0 mi SSW 12.7 mph 18.4 mph N/A   Partly Cloudy
2:55 PM 78.8 °F 10.4 °F 7% 29.93 in 10.0 mi West 20.7 mph 26.5 mph N/A   Scattered Clouds
3:15 PM 78.8 °F 12.2 °F 8% 29.93 in 10.0 mi WSW 10.4 mph 19.6 mph N/A   Scattered Clouds
3:35 PM 78.8 °F 10.4 °F 7% 29.92 in 10.0 mi SSW 12.7 mph 27.6 mph N/A   Partly Cloudy
3:55 PM 78.8 °F 10.4 °F 7% 29.92 in 10.0 mi SW 12.7 mph 20.7 mph N/A   Clear
4:15 PM 78.8 °F 12.2 °F 8% 29.92 in 10.0 mi SW 15.0 mph 20.7 mph N/A   Clear
4:35 PM 77.0 °F 8.6 °F 7% 29.92 in 10.0 mi SW 12.7 mph 28.8 mph N/A   Partly Cloudy
4:55 PM 75.2 °F 12.2 °F 9% 29.92 in 10.0 mi SW 11.5 mph 21.9 mph N/A   Partly Cloudy
5:15 PM 75.2 °F 12.2 °F 9% 29.92 in 10.0 mi SW 10.4 mph - N/A   Clear
5:35 PM 73.4 °F 12.2 °F 10% 29.92 in 10.0 mi SW 9.2 mph 17.3 mph N/A   Clear
5:55 PM 73.4 °F 12.2 °F 10% 29.92 in 10.0 mi SW 11.5 mph 17.3 mph N/A   Clear
6:15 PM 73.4 °F 10.4 °F 9% 29.92 in 10.0 mi SW 11.5 mph 18.4 mph N/A   Partly Cloudy
6:35 PM 73.4 °F 12.2 °F 10% 29.92 in 10.0 mi SW 10.4 mph 17.3 mph N/A   Clear
6:55 PM 71.6 °F 12.2 °F 10% 29.92 in 10.0 mi SW 9.2 mph 17.3 mph N/A   Clear
7:15 PM 71.6 °F 12.2 °F 10% 29.92 in 10.0 mi SW 10.4 mph 16.1 mph N/A   Clear
7:35 PM 69.8 °F 12.2 °F 11% 29.93 in 10.0 mi WSW 9.2 mph - N/A   Clear
7:55 PM 69.8 °F 12.2 °F 11% 29.93 in 10.0 mi WSW 9.2 mph 16.1 mph N/A   Clear
8:15 PM 68.0 °F 12.2 °F 12% 29.94 in 10.0 mi SW 5.8 mph - N/A   Clear
8:35 PM 66.2 °F 12.2 °F 12% 29.94 in 10.0 mi WSW 3.5 mph - N/A   Clear
8:55 PM 66.2 °F 12.2 °F 12% 29.95 in 10.0 mi SW 4.6 mph - N/A   Clear
9:15 PM 66.2 °F 14.0 °F 13% 29.95 in 10.0 mi SW 5.8 mph - N/A   Clear
9:35 PM 66.2 °F 14.0 °F 13% 29.96 in 10.0 mi WSW 6.9 mph - N/A   Clear
9:55 PM 66.2 °F 12.2 °F 12% 29.96 in 10.0 mi WSW 11.5 mph - N/A   Clear
10:15 PM 66.2 °F 10.4 °F 11% 29.96 in 10.0 mi WSW 11.5 mph 17.3 mph N/A   Clear
10:55 PM 64.4 °F 14.0 °F 14% 29.96 in 10.0 mi West 12.7 mph - N/A   Clear
11:15 PM 64.4 °F 14.0 °F 14% 29.97 in 10.0 mi West 8.1 mph 17.3 mph N/A   Clear
11:35 PM 64.4 °F 14.0 °F 14% 29.97 in 10.0 mi WSW 9.2 mph - N/A   Clear
11:55 PM 64.4 °F 14.0 °F 14% 29.98 in 10.0 mi West 11.5 mph - N/A   Clear